Location: Al Mulaqqa?ah
(24.1833°N, 32.8833°E)
Time: 19:56:47
(UTC+00:00)

Centaur AC-119 - Pass Details

Date: 26 September 2021
Orbit: 245 x 13775 km, 26.8° (Epoch: 15 October)

Event Time Altitude Azimuth Distance (km) Brightness Sun altitude
Rises 17:58:22 0° 281° (WNW) 2,938 7.2 -32.0°
Reaches altitude 10° 17:59:47 10° 280° (W) 2,377 6.4 -32.3°
Maximum altitude 18:05:05 79° 194° (SSW) 1,609 4.4 -33.5°
Enters shadow 18:06:55 64° 129° (SE) 2,055 4.7 -33.9°
